sat.trackr.live / text

‹ back to catalog

STARLINK-31404

NORAD 59521 · 2024-073L

PAYLOAD ACTIVE UNKNOWN

§ Identity

Operator
Country
US
Launch date
2024-04-17
Launch site
AFETR
Launch vehicle
Mass (kg)
RCS (m²)

Purposes: comms

External: N2YO · Heavens-Above · Gunter

§ Orbital elements

Epoch: 2026-05-25T00:11:35.299680Z

Period
94.27 min
Inclination
43.0056°
Eccentricity
0.0002599
Mean motion
15.27572476 rev/d
Perigee alt
481.3 km
Apogee alt
484.9 km
Semi-major
6,861.2 km
B*
2.7728e-5
RAAN
247.3478°
Arg perigee
275.9629°
Mean anomaly
84.0926°
Rev number
11,784

§ Raw data

STARLINK-314041 59521U 24073L   26145.00804745  .00000500  00000+0  27728-4 0  99982 59521  43.0056 247.3478 0002599 275.9629  84.0926 15.27572476117848

JSON: /api/v1/satellites/59521 · /tle

For live sub-satellite position, see the globe view (requires WebGL).

§ Visibility from observer

Set your observer location to see the next 7 days of passes ≥ 10°. The values pass through the URL so the page stays shareable.

No JS? Fill the form by hand. The geolocation button needs JavaScript.